This is the latest recevied weather packets stored in our database for station/object KQ4JKJ. If no packets are shown the sender has not sent any weather packets the latest 1 day(s).
| Time | Temp. | Humidity | Pressure | Rain* | Wind** | Luminosity | Snow |
|---|---|---|---|---|---|---|---|
| 1777996933 | 27.78° C | 58% | 1011.3 hPa | 0 mm | 0.45 m/s, 156° | 246 W/m² | - |
| 1777996629 | 28.33° C | 58% | 1011.3 hPa | 0 mm | 0.89 m/s, 75° | 715 W/m² | - |
| 1777996326 | 27.78° C | 59% | 1011 hPa | 0 mm | 1.34 m/s, 174° | 737 W/m² | - |
| 1777996022 | 27.78° C | 57% | 1011.1 hPa | 0 mm | 1.34 m/s, 122° | 716 W/m² | - |
| 1777995718 | 28.33° C | 57% | 1011.2 hPa | 0 mm | 1.34 m/s, 338° | 692 W/m² | - |
| 1777995415 | 28.33° C | 59% | 1011.2 hPa | 0 mm | 0.45 m/s, 16° | 710 W/m² | - |
| 1777995112 | 28.33° C | 58% | 1011.3 hPa | 0 mm | 0.89 m/s, 164° | 706 W/m² | - |
| 1777994809 | 27.78° C | 55% | 1011.1 hPa | 0 mm | 0.45 m/s, 9° | 685 W/m² | - |
| 1777994505 | 27.78° C | 59% | 1011.1 hPa | 0 mm | 0.45 m/s, 42° | 677 W/m² | - |
| 1777994200 | 27.78° C | 58% | 1011.3 hPa | 0 mm | 0 m/s | 678 W/m² | - |
| 1777993898 | 27.78° C | 60% | 1011.1 hPa | 0 mm | 0 m/s | 679 W/m² | - |
| 1777993594 | 27.22° C | 62% | 1010.8 hPa | 0 mm | 0.89 m/s, 27° | 654 W/m² | - |
| 1777993291 | 27.22° C | 62% | 1010.9 hPa | 0 mm | 0.45 m/s, 103° | 642 W/m² | - |
| 1777992986 | 27.22° C | 60% | 1010.9 hPa | 0 mm | 1.34 m/s, 19° | 637 W/m² | - |
| 1777992685 | 27.22° C | 62% | 1010.8 hPa | 0 mm | 1.79 m/s, 354° | 638 W/m² | - |
| 1777992382 | 27.78° C | 60% | 1010.9 hPa | 0 mm | 1.79 m/s, 95° | 572 W/m² | - |
| 1777992080 | 27.22° C | 60% | 1010.8 hPa | 0 mm | 1.79 m/s, 0° | 591 W/m² | - |
| 1777991777 | 27.22° C | 63% | 1010.9 hPa | 0 mm | 0.45 m/s, 57° | 586 W/m² | - |
| 1777991474 | 27.22° C | 63% | 1010.8 hPa | 0 mm | 1.34 m/s, 49° | 570 W/m² | - |
| 1777991172 | 27.22° C | 63% | 1010.6 hPa | 0 mm | 0 m/s | 556 W/m² | - |
| 1777990869 | 26.67° C | 65% | 1010.6 hPa | 0 mm | 0 m/s | 560 W/m² | - |
| 1777990566 | 27.22° C | 62% | 1010.7 hPa | 0 mm | 1.34 m/s, 19° | 158 W/m² | - |
| 1777990263 | 27.22° C | 66% | 1010.7 hPa | 0 mm | 0.45 m/s, 100° | 523 W/m² | - |
| 1777989960 | 26.67° C | 66% | 1010.9 hPa | 0 mm | 0.89 m/s, 157° | 535 W/m² | - |
| 1777989656 | 27.22° C | 61% | 1010.8 hPa | 0 mm | 0.45 m/s, 57° | 110 W/m² | - |
* Rain latest hour (hover to see other rain measurements)
** Current wind speed in m/s (hover to see current wind gust speed)